Tracking 29528 objects as of 14-Sep-2024
HD Live streaming from Space Station
objects crossing your sky now

FENGYUN 1C DEB

Track FENGYUN 1C DEB now!
10-day predictions


NORAD ID: 37902
Int'l Code: 1999-025ENB
Perigee: 832.8 km
Apogee: 1,329.2 km
Inclination: 98.7 °
Period: 106.7 minutes
Semi major axis: 7452 km
RCS: 0.0026 m2 (small)
Launch date: May 10, 1999
Source: People's Republic of China (PRC)
Launch site: Taiyaun Space Center, China (TSC)

Note: This is SATELLITE DEBRIS
Your satellite tracking list
Your tracking list is empty




NASA's NSSDC Master Catalog

Two Line Element Set (TLE):
1 37902U 99025ENB 24255.98420703  .00009011  00000-0  10148-1 0  9993
2 37902  98.6927 166.3005 0333093  41.8174 320.7907 13.49563498568077
Source of the keplerian elements: AFSPC